Find Kuiper-00261

NORAD ID: 67158 Int'l Des: 2025-301 Owner: KUIP Country: US Constellation: amazon-leo operational
LEOCIRCULAR

当前视图

正在加载3D地球...

About Kuiper-00261

Kuiper-00261 (NORAD 67158) is a amazon-leo constellation satellite launched Dec 16, 2025 by KUIP of US. It operates in LEO, CIRCULAR orbit with a mass of 490.00 kg.

关于 Kuiper-00261

正在加载描述...

即将过境

Passes for default location (London). Set your location on the main map for personalized predictions.

高度历史

Loading altitude history...

两行轨道根数

1 67158U 25301AB 26170.21849768 .00001825 00000-0 26834-3 0 9991
2 67158 51.9029 341.7026 0000640 112.6790 247.4240 14.79936947 28691
Epoch: Jun 19, 2026 • Age: 8 hours

当前状态

高度 642.6 km
速度 7.54 km/s
星下点 -38.94°S, 163.23°W
发射日期 Dec 16, 2025
运行时间 0.5 years
类型 internet

技术详情

分类 Payload
质量 490.00 kg
干质量 490.00 kg
总质量 490.00 kg
长度 1.80 m
直径 0.70 m
跨度 5.00 m
形状 Box + 2 pan
制造商 KUIP
平台类型 Kuiper
阶段状态 In Orbit
所有者/国家 KUIP/US

Most Searched